Regional Weather Roundup
Issued by NWS Wilmington, NC

Home | Current Version | Previous Version | Text Only | Print | Product List | Glossary On
Versions: 1 2 3 4 5 6 7 8 9 10 11 12 13 14 15 16 17 18 19 20 21 22 23 24 25 26 27 28 29 30 31 32 33 34 35 36 37 38 39 40 41 42 43 44 45 46 47 48 49 50
000
ASUS42 KILM 131810
RWRILM
RWRILM
REGIONAL HOURLY WEATHER ROUNDUP
NATIONAL WEATHER SERVICE WILMINGTON NC
200 PM EDT SUN JUL 13 2014

NOTE: "FAIR" INDICATES FEW OR NO CLOUDS BELOW 12,000 FEET WITH NO
SIGNIFICANT WEATHER AND/OR OBSTRUCTIONS TO VISIBILITY.

...............WFO WILMINGTON COUNTY WARNING AREA...............

......COASTAL NC AND SC COUNTIES......

CITY           SKY/WX    TMP DP  RH WIND       PRES   REMARKS
WILMINGTON     PTSUNNY   87  75  67 S15       30.12F HX  96
SOUTHPORT      MOSUNNY   85  74  69 S8        30.14F HX  92
N MYRTLE BEACH MOSUNNY   84  73  69 S10       30.12F HX  90
MYRTLE BEACH   MOSUNNY   84  73  70 S13       30.13F HX  91

......INLAND NC AND SC COUNTIES.......

CITY           SKY/WX    TMP DP  RH WIND       PRES   REMARKS
LUMBERTON      MOSUNNY   89  69  51 VRB7      30.10F HX  93
ELIZABETHTOWN  MOSUNNY   87  70  55 S7        30.12F HX  92
WHITEVILLE     PTSUNNY   87  71  57 S6        30.11F HX  92
FLORENCE       PTSUNNY   89  68  49 SW9       30.11F HX  93
DARLINGTON     MOSUNNY   90  68  48 SW7       30.12F HX  93

....................REST OF NORTH CAROLINA......................

.........EASTERN NC.........

CITY           SKY/WX    TMP DP  RH WIND       PRES   REMARKS
CAPE HATTERAS  SUNNY     85  71  63 S8        30.14F HX  90
JACKSONVILLE   PTSUNNY   90  72  55 SW9G16    30.11F HX  96
MOREHEAD CITY  MOSUNNY   85  73  67 S12       30.13F HX  91
KENANSVILLE    MOSUNNY   87  69  55 CALM      30.12F HX  91
NEW BERN       PTSUNNY   90  69  50 CALM      30.12F HX  94
ELIZABETH CITY PTSUNNY   86  72  62 S9        30.11S HX  92

.........CENTRAL NC.........

CITY           SKY/WX    TMP DP  RH WIND       PRES   REMARKS
RALEIGH DURHAM PTSUNNY   91  68  46 S7        30.10F HX  95
ROCKY MOUNT    SUNNY     89  69  51 VRB5      30.10F HX  93
ROANOKE RAPIDS NOT AVBL
FAYETTEVILLE   PTSUNNY   90  68  48 SW8       30.10F HX  94
HOFFMAN        SUNNY     90  65  44 S7        30.12F HX  91

.........WESTERN NC.........

CITY           SKY/WX    TMP DP  RH WIND       PRES   REMARKS
CHARLOTTE      PTSUNNY   91  65  41 SW7       30.12F HX  93
GREENSBORO     PTSUNNY   89  67  47 S13       30.10F HX  92
HICKORY        NOT AVBL
BOONE          NOT AVBL
ASHEVILLE      NOT AVBL

.....................REST OF SOUTH CAROLINA.....................

.........EASTERN SC.........

CITY           SKY/WX    TMP DP  RH WIND       PRES   REMARKS
CHARLESTON     LGT RAIN  79  74  84 CALM      30.13F
BEAUFORT MCAS  CLOUDY    81  71  71 E3        30.13F
HILTON HEAD    NOT AVBL

.........CENTRAL SC.........

CITY           SKY/WX    TMP DP  RH WIND       PRES   REMARKS
COLUMBIA       PTSUNNY   91  64  40 VRB5      30.10F HX  92
ORANGEBURG     MOSUNNY   89  66  46 SW7       30.11F HX  91
SUMTER SHAW    MOSUNNY   90  70  51 S8        30.10F HX  94

.........WESTERN SC.........

CITY           SKY/WX    TMP DP  RH WIND       PRES   REMARKS
GREENVILLE     NOT AVBL
ROCK HILL      MOSUNNY   88  64  44 VRB6      30.12F
ANDERSON       MOSUNNY   91  65  41 VRB3      30.12F HX  93
CLEMSON        NOT AVBL
GREENWOOD      MOSUNNY   90  64  42 SW5       30.14F HX  91


...................COASTAL AND OFFSHORE REPORTS..................

................LOCAL PIERS AND NC RESERVE................


STATION/POSITION TIME  SKY/WX   TEMP    WIND        PRES    VSBY
                                AIR SEA DIR/SP/G
                 (UTC)          (F)     (DEG/KT/KT) (MB)    (MI)
JOHNY MRCER PIER 1800            81 85  170/ 12/ 15 1019.9F
NC RESRV MASNBRO 1700            85     150/  4     1021.0S
OCEAN CREST PIER 1800            82 86  190/  8/ 10 1019.6F
SPRINGMAID  PIER 1800            81 85  130/ 10/ 12 1020.3F


................COASTAL AND OFFSHORE BUOYS................


STATION/POSITION TIME  SKY/WX   TEMP    WIND        PRES    VSBY
                                AIR SEA DIR/SP/G
                 (UTC)          (F)     (DEG/KT/KT) (MB)    (MI)
DIMNDSHOAL 41025 1800                   VRB  4/  6  1020.6F
WVE H/P(F/S)=  2/ 8 SWL H/P/D(F/S/D)=  2/160/ 8

CAPE LOOKOUT     1700            81     140/  5/  7 1020.8F
ONSLOW BAY 41036 1800            80 85  170/  4/  6 1021.2F
WVE H/P(F/S)=  2/ 7 SWL H/P/D(F/S/D)=  2/150/ 7

5 WRITEBCH 41038 1700            78 83  160/ 10/ 12 1021.5F
MASONBORO  41110 1800               83                N/A
WVE H/P(F/S)=  2/ 7 WND WVE H/P(F/S)=  2/ 7

WILM HARBR 41108 NOT AVBL
27WRITEBCH 41037 1700            79 83  160/  2/  4 1021.0F
FRYING PAN 41013 NOT AVBL
SUNST NRSH 41024 1700            84     170/ 12/ 12 1020.9F
CAPRS NRSH 41029 1700            78     210/ 10/ 12   N/A
EDISTO     41004 1800            78 82  180/  2/  4 1020.1F
WVE H/P(F/S)=  2/ 7 WND WVE H/P(F/S)=  2/ 4 SWL H/P/D(F/S/D)=  2/ 7



..........OFFSHORE BUOYS BEYOND 100 NM OFFSHORE...........
.....IN A TRIANGLE---HAT TO BERMUDA TO BAHAMAS TO HAT.....


STATION/POSITION TIME  SKY/WX   TEMP    WIND        PRES    VSBY
                                AIR SEA DIR/SP/G
                 (UTC)          (F)     (DEG/KT/KT) (MB)    (MI)
150E HAT   41001 NOT AVBL
W BERMUDA  41048 1741            74 82  100/ 10/ 14 1021.8F
WVE H/P(F/S)=  3/ 9 WND WVE H/P(F/S)=  2/ 4 SWL H/P/D(F/S/D)=  3/130/ 9

ATLANTIC S 41049 1744            80 83  120/ 14/ 17 1021.1F
WVE H/P(F/S)=  5/ 8 WND WVE H/P(F/S)=  3/ 6 SWL H/P/D(F/S/D)=  3/120/ 8

E BAHAMAS  41046 1733            82 85   80/  6/ 10 1019.2F
WVE H/P(F/S)=  3/ 8 WND WVE H/P(F/S)=  2/ 4 SWL H/P/D(F/S/D)=  3/120/ 8

NE BAHAMAS 41047 1701            83 85   90/  6/  8 1021.0F
WVE H/P(F/S)=  4/ 8 WND WVE H/P(F/S)=  2/ 4 SWL H/P/D(F/S/D)=  3/130/ 8

120E CANVRL41010 1800            83 85  150/  4/  6 1020.8F
WVE H/P(F/S)=  3/ 7 WND WVE H/P(F/S)=  2/ 4 SWL H/P/D(F/S/D)=  3/120/ 7


END


USA.gov is the U.S. government's official web portal to all federal, state and local government web resources and services.